Regional Weather Roundup
Issued by NWS Northern Indiana

Home | Current Version | Previous Version | Graphics & Text | Print | Product List | Glossary On
Versions: 1 2 3 4 5 6 7 8 9 10 11 12 13 14 15 16 17 18 19 20 21 22 23 24 25 26 27 28 29 30 31 32 33 34 35 36 37 38 39 40 41 42 43 44 45 46 47 48 49 50
000
ASUS43 KIWX 272010
RWRIWX

KIWX WEATHER ROUNDUP
NATIONAL WEATHER SERVICE NORTHERN INDIANA
400 PM EDT SAT MAY 27 2017

NOTE: "FAIR" INDICATES FEW OR NO CLOUDS BELOW 12,000 FEET WITH NO
SIGNIFICANT WEATHER AND/OR OBSTRUCTIONS TO VISIBILITY.

* THESE STATIONS ARE NOT UNDER NWS QUALITY CONTROL. THEY ALSO MAY NOT
  REPORT WEATHER SUCH AS PRECIPITATION OR FOG.

INZ001>027-272100-
NORTHERN INDIANA

CITY           SKY/WX    TMP DP  RH WIND       PRES   REMARKS
GARY*          PTSUNNY   70  55  60 VRB6      29.90F
VALPARAISO     PTSUNNY   75  64  68 VRB3      29.89F
MICHIGAN CITY* SUNNY     66  59  77 N8        29.92S
LAPORTE*       CLOUDY    71  62  71 CALM      29.91S
KNOX*          CLOUDY    70  52  52 CALM      29.89F
SOUTH BEND     CLOUDY    72  61  68 SW3       29.90S
ELKHART*       CLOUDY    72  59  64 CALM      29.90S
GOSHEN         CLOUDY    72  59  63 CALM      29.90R
MONTICELLO*    CLOUDY    70  62  76 CALM      29.89F
LOGANSPORT*    PTSUNNY   70  63  78 CALM      29.89F
ROCHESTER*     CLOUDY    73  63  68 CALM      29.89F
WARSAW*        CLOUDY    70  61  73 CALM      29.89F
ANGOLA*        CLOUDY    72  61  68 VRB5      29.90R
FORT WAYNE     CLOUDY    73  63  70 CALM      29.88F
HUNTINGTON*    CLOUDY   N/A N/A N/A CALM      29.89S
PERU/GRISSOM   PTSUNNY   73  63  69 CALM      29.87F
MARION*        PTSUNNY   72  63  73 NW6       29.89F

$$
INZ028>050-272100-
CENTRAL INDIANA

CITY           SKY/WX    TMP DP  RH WIND       PRES   REMARKS
LAFAYETTE      CLOUDY    71  63  75 N5        29.88F
KOKOMO*        CLOUDY    72  63  73 N5        29.89F
MUNCIE*        CLOUDY    77  65  66 NW8       29.87F
INDIANAPOLIS   MOSUNNY   78  64  61 CALM      29.86F

$$
MIZ043>046-050>051-056>058-064>065-071>073-077>080-272100-
SOUTHWEST LOWER MICHIGAN

CITY           SKY/WX    TMP DP  RH WIND       PRES   REMARKS
BATTLE CREEK   CLOUDY    73  58  59 CALM      29.90F
BENTON HARBOR  SUNNY     68  56  65 VRB7      29.91R
COLDWATER*     CLOUDY    71  60  67 E3        29.91R
HILLSDALE*     CLOUDY    68  59  73 SE3       29.91R
HOLLAND        SUNNY     73  54  51 NW12      29.91R
GRAND RAPIDS   PTSUNNY   75  55  49 W3        29.89R
KALAMAZOO      CLOUDY    72  56  57 S6        29.90S
STURGIS*       CLOUDY    72  60  65 S3        29.89S
THREE RIVERS*  CLOUDY    72  60  65 CALM      29.90S

$$
OHZ001>008-015>018-024>025-272100-
NORTHWEST OHIO

CITY           SKY/WX    TMP DP  RH WIND       PRES   REMARKS
WAUSEON*       CLOUDY    72  59  64 E8        29.90S
DEFIANCE       CLOUDY    71  61  70 E6        29.89S
FINDLAY        CLOUDY    74  61  63 S3        29.87S
TOLEDO EXPRESS PTSUNNY   73  56  54 E8        29.89F
TOLEDO METCALF SUNNY     73  56  54 NE12G18   29.90F
LIMA           CLOUDY    75  65  70 E5        29.87F

$$
AND FOR LAKE MICHIGAN COASTAL AND OPEN LAKE BUOY OBSERVATIONS

STATION/POSITION TEMP    WIND        PRES    VSBY  WAVE
                 AIR SEA DIR/SP/G                  HT/PER
                 (F)     (DEG/KT/KT) (MB)    (MI)  (FT/S)
CALUMET HARBOR    58      50/  7/  7 1012.1F
MICHIGAN CITY     56     290/  5/  5   N/A
BURNS HARBOR      55     340/  3/  4 1013.5F
SOUTH LAKE BUOY   52 50  320/  4/  4 1013.6R         0
4 MI NW BRIDGMAN  56 60  350/  8/ 10 1013.3          1/ 2
MICHIGAN CITY     53 56  360/  6/  8   N/A           1

$$
&&




USA.gov is the U.S. government's official web portal to all federal, state and local government web resources and services.